Simultaneous Nadir Overpasses (SNOs) Predictions

Prediction of SNOs between AURA and NPP Satellite Orbit:

Table of predicted SNOs for the next 14.0 days since TLE Epoch: 10/31/2020
Index Date (AURA) Time (AURA) Lat,Lon (AURA) SZA (AURA ) Date (NPP) Time (NPP) Lat,Lon (NPP) SZA (NPP ) Distance(km) Time Diff (sec)
1 10/31/2020 19:08:35 79.41, 148.99 105.99 10/31/2020 19:07:43 79.41, 148.94 106.04 1.23 52
2 10/31/2020 19:57:55 -79.68, -41.49 74.37 10/31/2020 19:58:20 -79.68, -41.49 74.39 0.17 25
3 11/03/2020 11:24:59 79.56, -94.13 106.62 11/03/2020 11:24:32 79.57, -94.02 106.62 2.42 27
4 11/03/2020 12:14:22 -79.71, 74.62 73.58 11/03/2020 12:15:13 -79.70, 74.49 73.60 2.71 51
5 11/06/2020 03:41:25 79.58, 21.92 107.39 11/06/2020 03:41:24 79.59, 21.93 107.39 0.34 1
6 11/06/2020 04:29:15 -81.81,-135.84 77.57 11/06/2020 04:30:28 -81.33,-135.39 77.90 54.20 73
7 11/08/2020 19:08:31 -79.42, -30.95 71.63 11/08/2020 19:07:38 -79.43, -30.93 71.59 0.53 53
8 11/08/2020 19:57:51 79.64, 138.21 108.09 11/08/2020 19:58:16 79.64, 138.14 108.09 1.50 25
9 11/11/2020 11:24:56 -79.51, 85.57 71.01 11/11/2020 11:24:29 -79.51, 85.53 70.98 0.77 27
10 11/11/2020 12:14:16 79.73,-105.25 108.71 11/11/2020 12:15:07 79.72,-105.38 108.70 2.67 51
